Location: Vancouver
(49.2500°N, 123.1330°W)
Time: 04:50:09
(UTC-07:00)

S-56A Canister/Altair - Visible Passes

Search period start: 27 May 2015 00:00
Search period end: 06 June 2015 00:00
Orbit: 636 x 2499 km, 38.9° (Epoch: 26 May)

Date Brightness Start Highest point End Pass type
(mag) Time Alt. Az. Time Alt. Az. Time Alt. Az.
27 May 9.6 01:41:25 25° SSW 01:46:11 34° SSE 01:53:37 10° ESE visible
27 May 9.1 03:40:54 10° WSW 03:50:14 41° S 03:56:37 10° ESE visible
27 May 10.5 23:10:27 16° SE 23:10:27 16° SE 23:15:43 10° ESE visible
28 May 9.7 01:07:28 21° SSW 01:13:38 33° SSE 01:21:29 10° E visible
28 May 9.1 03:07:48 10° WSW 03:17:51 42° S 03:24:42 10° ESE visible
28 May 10.6 22:30:16 10° S 22:36:36 15° SE 22:42:51 10° ESE visible
29 May 9.8 00:30:04 10° SSW 00:41:01 33° SSE 00:49:18 10° E visible
29 May 9.2 02:34:40 10° WSW 02:45:24 44° S 02:52:45 10° ESE visible
29 May 10.7 21:58:26 10° SSE 22:03:55 14° SE 22:09:43 10° ESE visible
29 May 9.9 23:57:11 10° SSW 00:08:21 32° SSE 00:17:03 10° E visible
30 May 9.3 02:01:31 10° WSW 02:12:53 44° S 02:20:45 10° ESE visible
30 May 9.1 04:07:34 10° W 04:16:49 38° SSW 04:23:09 10° SE visible
30 May 10.1 23:24:23 10° SSW 23:35:39 31° SSE 23:44:43 10° E visible
31 May 9.4 01:28:21 10° WSW 01:40:18 45° S 01:48:41 10° ESE visible
31 May 9.2 03:34:22 10° WSW 03:44:27 41° SSW 03:51:20 10° SE visible
31 May 10.2 22:51:39 10° SSW 23:02:54 29° SSE 23:12:16 10° E visible
01 Jun 9.6 00:55:13 10° SW 01:07:38 45° S 01:16:34 10° ESE visible
01 Jun 9.2 03:01:09 10° WSW 03:12:02 44° S 03:19:26 10° ESE visible
01 Jun 10.3 22:19:02 10° SSW 22:30:07 28° SSE 22:39:45 10° E visible
02 Jun 9.7 00:22:07 10° SW 00:34:55 44° SSE 00:44:23 10° E visible
02 Jun 9.3 02:27:54 10° WSW 02:39:31 47° S 02:47:29 10° ESE visible
02 Jun 10.5 21:46:31 10° SSW 21:57:19 26° SE 22:07:05 10° E visible
02 Jun 9.8 23:49:03 10° SW 00:02:08 44° SSE 00:12:08 10° E visible
03 Jun 9.4 01:54:38 10° WSW 02:06:56 49° S 02:15:29 10° ESE visible
03 Jun 9.4 04:01:22 10° W 04:10:44 32° SSW 04:17:20 10° SSE visible
03 Jun 9.9 23:16:03 10° SW 23:29:19 43° SSE 23:39:48 10° E visible
04 Jun 9.5 01:21:23 10° WSW 01:34:17 50° S 01:43:24 10° ESE visible
04 Jun 9.4 03:28:03 10° W 03:38:22 36° SSW 03:45:35 10° SE visible
04 Jun 10.0 22:43:08 10° SW 22:56:27 42° SSE 23:07:23 10° E visible
05 Jun 9.6 00:48:09 10° WSW 01:01:32 51° S 01:11:17 10° ESE visible
05 Jun 9.5 02:54:43 10° W 03:05:55 40° SSW 03:13:46 10° SE visible
05 Jun 10.2 22:10:18 10° SW 22:23:33 40° SSE 22:34:53 10° E visible
